Home   Weather   Holyhead   Past weeks
Flag for United Kingdom

Past Weather in Holyhead, Wales, United Kingdom — Yesterday and Last 2 Weeks

Now
46 °F

Passing clouds.


Feels Like: 42 °F
Forecast: N/A
Wind: 8 mph from West

Location: Valley

Current Time: Mar 22, 2019 at 11:11:19 pm

Latest Report: Mar 22, 2019 at 9:50 pm


Visibility: N/A

Pressure: 30.33 "Hg

Humidity: 87%

Dew Point: 43 °F

Location of HolyheadLocation

Past Weather in Holyhead — Graph

°F

Holyhead Temperature Yesterday

Maximum temperature yesterday: 52 °F (at 11:50 am)
Minimum temperature yesterday: 46 °F (at 3:50 am)
Average temperature yesterday: 49 °F

High & Low Weather Summary for the Past Weeks

 TemperatureHumidityPressure
High52 °F (Mar 14, 11:50 am)100% (Mar 8, 3:50 pm)30.51 "Hg (Mar 8, 3:50 pm)
Low37 °F (Mar 10, 3:50 pm)57% (Mar 10, 12:50 pm)29.18 "Hg (Mar 16, 1:50 pm)
Average47 °F87%29.92 "Hg
* Reported Mar 7 9:50 pm — Mar 22 9:50 pm, Holyhead. Weather by CustomWeather, © 2019

Note: Actual official high and low records may vary slightly from our data, if they occured in-between our weather recording intervals... More about our weather records

Advertising

Holyhead Weather History for the Previous 24 Hours

Scroll right to see more
 ConditionsComfort  
Time TempWeatherWind HumidityBarometerVisibility
9:50 pm
Fri, Mar 22
46 °FPassing clouds.8 mph87%30.33 "HgN/A
8:50 pm46 °FPassing clouds.8 mph87%30.33 "HgN/A
7:50 pm48 °FPassing clouds.8 mph94%30.30 "HgN/A
6:50 pm48 °FPassing clouds.8 mph94%30.27 "HgN/A
5:50 pm48 °FBroken clouds.9 mph94%30.24 "HgN/A
4:36 pm48 °FDrizzle. More clouds than sun.22 mph100%30.21 "Hg2 mi
4:05 pm48 °FDrizzle. Mostly cloudy.23 mph100%30.21 "Hg4 mi
2:50 pm50 °FDrizzle. Mostly cloudy.23 mph94%30.21 "Hg4 mi
1:50 pm50 °FPartly sunny.25 mph94%30.21 "HgN/A
1:29 pm50 °FBroken clouds.25 mph94%30.21 "HgN/A
12:50 pm50 °FPartly sunny.26 mph88%30.21 "HgN/A
11:50 am50 °FPartly sunny.32 mph88%30.21 "HgN/A
10:50 am50 °FOvercast.25 mph88%30.21 "HgN/A
9:50 am48 °FPartly sunny.22 mph100%30.24 "HgN/A
9:07 am48 °FDrizzle. Cloudy.24 mph94%30.21 "HgN/A
8:42 am48 °FOvercast.24 mph94%30.24 "HgN/A
7:50 am48 °FMostly cloudy.23 mph94%30.24 "HgN/A
6:50 am48 °FDrizzle. Mostly cloudy.29 mph94%30.24 "HgN/A
5:50 am48 °FPartly cloudy.26 mph100%30.24 "HgN/A
4:50 am48 °FFog.22 mph100%30.24 "Hg5 mi
3:50 am48 °FPassing clouds.21 mph100%30.27 "HgN/A
2:50 am48 °FPassing clouds.18 mph100%30.27 "HgN/A
1:50 am48 °FFog.18 mph100%30.30 "Hg2 mi
12:50 am48 °FFog.18 mph100%30.33 "Hg4 mi
11:50 pm
Thu, Mar 21
48 °FFog.18 mph100%30.33 "Hg2 mi
Weather by CustomWeather, © 2019

See weather overview